Home > Weather > Cleveland > Past weeks

Flag for USA Past Weather in Cleveland, Tennessee, USA — Yesterday and Last 2 Weeks

Now
69 °F

Clear.


Feels Like: 69 °F
Forecast: 65 / 87 °F
Wind: 3 mph from Northwest

Location: Lovell Field

Current Time: May 31, 2016 at 2:03:38 AM

Latest Report: May 31, 2016 at 12:53 AM


Visibility: 10 mi

Pressure: 29.94 "Hg

Humidity: 79%

Dew Point: 62 °F

Location of ClevelandLocation

Past Weather in Cleveland — Graph

°F

Cleveland Temperature Yesterday

Maximum temperature yesterday: 91 °F (at 4:53 PM)
Minimum temperature yesterday: 69 °F (at 4:53 AM)
Average temperature yesterday: 79 °F

High & Low Weather Summary for the Past Weeks

 TemperatureHumidityPressure
High91 °F (May 30, 4:53 PM)94% (May 20, 7:53 PM)30.24 "Hg (May 20, 7:53 PM)
Low49 °F (May 16, 2:53 AM)24% (May 23, 5:53 PM)29.90 "Hg (May 30, 6:53 PM)
Average72 °F61%30.04 "Hg
* Reported May 15 11:53 PM — May 30 11:53 PM, Cleveland, Weather by CustomWeather, © 2016

Note: Actual official high and low records may vary slightly from our data, if they occured in-between our weather recording intervals... More about our weather records

Advertising

Cleveland Weather History for the Previous 24 Hours

Scroll right to see more
 ConditionsComfort  
Time TempWeatherWind HumidityBarometerVisibility
11:53 PM
Mon, May 30
73 °FPassing clouds.No wind66%29.95 "Hg10 mi
10:53 PM76 °FPassing clouds.No wind58%29.95 "Hg10 mi
9:53 PM78 °FPassing clouds.No wind56%29.93 "Hg10 mi
8:53 PM82 °FScattered clouds.No wind49%29.91 "Hg10 mi
7:53 PM86 °FScattered clouds.8 mph42%29.91 "Hg10 mi
6:53 PM87 °FScattered clouds.5 mph43%29.90 "Hg10 mi
5:53 PM89 °FScattered clouds.9 mph38%29.91 "Hg10 mi
4:53 PM91 °FScattered clouds.6 mph34%29.92 "Hg10 mi
3:53 PM85 °FLight rain. Broken clouds.5 mph50%29.93 "Hg10 mi
2:53 PM88 °FBroken clouds.6 mph36%29.95 "Hg10 mi
1:53 PM89 °FBroken clouds.6 mph39%29.96 "Hg10 mi
12:53 PM88 °FBroken clouds.5 mph42%29.98 "Hg10 mi
11:53 AM87 °FScattered clouds.3 mph46%30.00 "Hg10 mi
10:53 AM82 °FBroken clouds.3 mph56%30.02 "Hg10 mi
9:53 AM79 °FPartly sunny.5 mph62%30.03 "Hg10 mi
8:53 AM76 °FPartly sunny.3 mph67%30.03 "Hg10 mi
7:53 AM73 °FScattered clouds.No wind74%30.01 "Hg10 mi
6:53 AM69 °FPartly cloudy.No wind84%30.01 "Hg10 mi
5:53 AM71 °FPartly cloudy.No wind78%30.00 "Hg10 mi
4:53 AM69 °FPassing clouds.No wind84%30.00 "Hg10 mi
3:53 AM70 °FClear.No wind81%30.00 "Hg10 mi
2:53 AM70 °FClear.No wind81%30.01 "Hg10 mi
Weather by CustomWeather, © 2016

See weather overviewHow to use our weather pages